Time,TemperatureF,DewpointF,PressureIn,WindDirection,WindDirectionDegrees,WindSpeedMPH,WindSpeedGustMPH,Humidity,HourlyPrecipIn,Conditions,Clouds,dailyrainin,SoftwareType,DateUTC
2013-07-15 00:04:00,67.3,58.0,30.21,SE,130,15.0,15.4,72,0.00,,---,0.00,VWS V14.01,2013-07-15 06:04:00,
2013-07-15 00:09:00,67.3,58.0,30.21,ESE,117,13.2,13.2,72,0.00,,---,0.00,VWS V14.01,2013-07-15 06:09:00,
2013-07-15 00:15:00,67.3,58.0,30.21,SE,128,12.8,15.0,72,0.00,,---,0.00,VWS V14.01,2013-07-15 06:15:00,
2013-07-15 00:20:00,67.3,58.0,30.21,SE,133,12.8,15.4,72,0.00,,---,0.00,VWS V14.01,2013-07-15 06:20:00,
2013-07-15 00:26:00,67.3,57.6,30.21,ESE,119,13.2,13.2,71,0.00,,---,0.00,VWS V14.01,2013-07-15 06:26:00,
2013-07-15 00:31:00,67.3,57.6,30.21,ESE,122,13.2,15.9,71,0.00,,---,0.00,VWS V14.01,2013-07-15 06:31:00,
2013-07-15 00:37:00,67.1,57.4,30.21,SE,128,15.4,17.4,71,0.00,,---,0.00,VWS V14.01,2013-07-15 06:37:00,
2013-07-15 00:43:00,67.1,57.4,30.21,SE,134,15.0,15.0,71,0.00,,---,0.00,VWS V14.01,2013-07-15 06:43:00,
2013-07-15 00:48:00,67.1,57.0,30.21,SE,131,13.6,13.6,70,0.00,,---,0.00,VWS V14.01,2013-07-15 06:48:00,
2013-07-15 00:54:00,67.1,57.0,30.21,SE,136,13.2,13.2,70,0.00,,---,0.00,VWS V14.01,2013-07-15 06:54:00,
2013-07-15 00:59:00,66.9,56.8,30.21,SE,135,10.5,12.8,70,0.00,,---,0.00,VWS V14.01,2013-07-15 06:59:00,
2013-07-15 01:05:00,66.9,56.8,30.21,SE,131,14.5,15.4,70,0.00,,---,0.00,VWS V14.01,2013-07-15 07:05:00,
2013-07-15 01:10:00,66.7,56.7,30.21,SE,131,13.2,14.1,70,0.00,,---,0.00,VWS V14.01,2013-07-15 07:10:00,
2013-07-15 01:16:00,66.7,56.7,30.21,SSE,159,20.1,20.1,70,0.00,,---,0.00,VWS V14.01,2013-07-15 07:16:00,
2013-07-15 01:21:00,66.7,56.7,30.21,SE,133,15.0,15.0,70,0.00,,---,0.00,VWS V14.01,2013-07-15 07:21:00,
2013-07-15 01:26:00,66.7,56.7,30.21,SE,144,17.4,17.4,70,0.00,,---,0.00,VWS V14.01,2013-07-15 07:26:00,
2013-07-15 01:32:00,66.7,56.7,30.21,SSE,154,17.4,18.3,70,0.00,,---,0.00,VWS V14.01,2013-07-15 07:32:00,
2013-07-15 01:37:00,66.7,57.0,30.21,SSE,161,13.6,16.8,71,0.00,,---,0.00,VWS V14.01,2013-07-15 07:37:00,
2013-07-15 01:42:00,66.7,56.7,30.21,SSE,153,11.9,15.0,70,0.00,,---,0.00,VWS V14.01,2013-07-15 07:42:00,
2013-07-15 01:47:00,66.9,56.8,30.21,SSE,154,14.1,14.1,70,0.00,,---,0.00,VWS V14.01,2013-07-15 07:47:00,
2013-07-15 01:53:00,66.7,56.7,30.21,SE,145,10.1,12.8,70,0.00,,---,0.00,VWS V14.01,2013-07-15 07:53:00,
2013-07-15 01:59:00,66.7,56.7,30.21,South,183,8.1,8.1,70,0.00,,---,0.00,VWS V14.01,2013-07-15 07:59:00,
2013-07-15 02:05:00,66.7,56.7,30.21,SSE,154,8.7,10.5,70,0.00,,---,0.00,VWS V14.01,2013-07-15 08:05:00,
2013-07-15 02:11:00,66.7,56.7,30.21,SSE,153,9.2,10.1,70,0.00,,---,0.00,VWS V14.01,2013-07-15 08:11:00,
2013-07-15 02:16:00,66.7,56.7,30.21,SSE,147,11.9,11.9,70,0.00,,---,0.00,VWS V14.01,2013-07-15 08:16:00,
2013-07-15 02:22:00,66.7,56.7,30.21,SSE,157,10.5,10.5,70,0.00,,---,0.00,VWS V14.01,2013-07-15 08:22:00,
2013-07-15 02:28:00,66.7,56.7,30.21,SE,135,11.0,11.0,70,0.00,,---,0.00,VWS V14.01,2013-07-15 08:28:00,
2013-07-15 02:33:00,66.7,56.7,30.21,SE,137,11.0,11.0,70,0.00,,---,0.00,VWS V14.01,2013-07-15 08:33:00,
2013-07-15 02:39:00,66.6,56.5,30.21,SE,137,10.5,10.5,70,0.00,,---,0.00,VWS V14.01,2013-07-15 08:39:00,
2013-07-15 02:44:00,66.6,56.9,30.21,SE,141,8.7,8.7,71,0.00,,---,0.00,VWS V14.01,2013-07-15 08:44:00,
2013-07-15 02:50:00,66.6,56.9,30.21,SE,132,10.5,10.5,71,0.00,,---,0.00,VWS V14.01,2013-07-15 08:50:00,
2013-07-15 02:55:00,66.6,56.9,30.21,SE,135,8.3,9.2,71,0.00,,---,0.00,VWS V14.01,2013-07-15 08:55:00,
2013-07-15 03:01:00,66.4,56.7,30.21,SE,133,11.0,11.0,71,0.00,,---,0.00,VWS V14.01,2013-07-15 09:01:00,
2013-07-15 03:07:00,66.4,56.7,30.21,SE,134,8.7,8.7,71,0.00,,---,0.00,VWS V14.01,2013-07-15 09:07:00,
2013-07-15 03:13:00,66.4,56.7,30.21,SE,144,8.7,8.7,71,0.00,,---,0.00,VWS V14.01,2013-07-15 09:13:00,
2013-07-15 03:19:00,66.4,57.1,30.21,SE,126,8.3,10.5,72,0.00,,---,0.00,VWS V14.01,2013-07-15 09:19:00,
2013-07-15 03:24:00,66.2,56.9,30.21,SE,138,11.0,11.0,72,0.00,,---,0.00,VWS V14.01,2013-07-15 09:24:00,
2013-07-15 03:29:00,66.2,56.9,30.21,SE,139,8.7,11.0,72,0.00,,---,0.00,VWS V14.01,2013-07-15 09:29:00,
2013-07-15 03:34:00,66.2,56.9,30.21,SSE,149,11.9,13.2,72,0.00,,---,0.00,VWS V14.01,2013-07-15 09:34:00,
2013-07-15 03:40:00,66.2,56.9,30.21,SSE,155,10.1,10.1,72,0.00,,---,0.00,VWS V14.01,2013-07-15 09:40:00,
2013-07-15 03:46:00,66.2,56.9,30.21,SSE,148,7.6,8.7,72,0.00,,---,0.00,VWS V14.01,2013-07-15 09:46:00,
2013-07-15 03:51:00,66.0,56.7,30.21,SSE,150,7.6,7.6,72,0.00,,---,0.00,VWS V14.01,2013-07-15 09:51:00,
2013-07-15 03:57:00,66.0,56.7,30.21,SSE,150,8.3,8.3,72,0.00,,---,0.00,VWS V14.01,2013-07-15 09:57:00,
2013-07-15 04:03:00,66.0,56.7,30.21,SSE,148,8.1,8.1,72,0.00,,---,0.00,VWS V14.01,2013-07-15 10:03:00,
2013-07-15 04:08:00,66.0,56.7,30.21,SSE,159,7.6,7.6,72,0.00,,---,0.00,VWS V14.01,2013-07-15 10:08:00,
2013-07-15 04:14:00,66.0,56.7,30.21,SE,129,8.3,8.3,72,0.00,,---,0.00,VWS V14.01,2013-07-15 10:14:00,
2013-07-15 04:19:00,65.8,56.6,30.21,SE,127,8.3,8.7,72,0.00,,---,0.00,VWS V14.01,2013-07-15 10:19:00,
2013-07-15 04:25:00,65.7,56.4,30.21,ESE,116,7.6,7.6,72,0.00,,---,0.00,VWS V14.01,2013-07-15 10:25:00,
2013-07-15 04:31:00,65.5,56.2,30.21,ESE,112,7.6,7.6,72,0.00,,---,0.00,VWS V14.01,2013-07-15 10:31:00,
2013-07-15 04:36:00,65.3,56.0,30.21,ESE,116,6.3,6.3,72,0.00,,---,0.00,VWS V14.01,2013-07-15 10:36:00,
2013-07-15 04:42:00,65.1,55.9,30.21,ESE,116,8.1,8.1,72,0.00,,---,0.00,VWS V14.01,2013-07-15 10:42:00,
2013-07-15 04:47:00,64.9,55.7,30.21,ESE,122,6.3,6.3,72,0.00,,---,0.00,VWS V14.01,2013-07-15 10:47:00,
2013-07-15 04:53:00,64.8,55.5,30.21,ESE,121,5.4,6.7,72,0.00,,---,0.00,VWS V14.01,2013-07-15 10:53:00,
2013-07-15 04:58:00,64.6,55.4,30.21,ESE,117,7.6,7.6,72,0.00,,---,0.00,VWS V14.01,2013-07-15 10:58:00,
2013-07-15 05:04:00,64.4,55.2,30.21,ESE,118,6.3,6.3,72,0.00,,---,0.00,VWS V14.01,2013-07-15 11:04:00,
2013-07-15 05:09:00,64.2,55.0,30.21,ESE,114,6.3,6.3,72,0.00,,---,0.00,VWS V14.01,2013-07-15 11:09:00,
2013-07-15 05:14:00,64.0,54.8,30.21,ESE,113,6.3,8.1,72,0.00,,---,0.00,VWS V14.01,2013-07-15 11:14:00,
2013-07-15 05:20:00,63.9,54.7,30.21,ESE,104,7.2,7.2,72,0.00,,---,0.00,VWS V14.01,2013-07-15 11:20:00,
2013-07-15 05:26:00,63.7,54.5,30.21,East,101,6.3,6.3,72,0.00,,---,0.00,VWS V14.01,2013-07-15 11:26:00,
2013-07-15 05:32:00,63.5,54.3,30.21,ESE,111,8.1,8.3,72,0.00,,---,0.00,VWS V14.01,2013-07-15 11:32:00,
2013-07-15 05:37:00,63.5,54.3,30.21,ESE,120,8.7,8.7,72,0.00,,---,0.00,VWS V14.01,2013-07-15 11:37:00,
2013-07-15 05:42:00,63.3,54.2,30.21,ESE,120,8.7,8.7,72,0.00,,---,0.00,VWS V14.01,2013-07-15 11:42:00,
2013-07-15 05:48:00,63.3,54.2,30.21,ESE,117,7.6,8.7,72,0.00,,---,0.00,VWS V14.01,2013-07-15 11:48:00,
2013-07-15 05:54:00,63.5,54.3,30.21,SE,125,7.2,8.1,72,0.00,,---,0.00,VWS V14.01,2013-07-15 11:54:00,
2013-07-15 06:00:00,64.0,54.8,30.21,SE,127,6.3,6.3,72,0.00,,---,0.00,VWS V14.01,2013-07-15 12:00:00,
2013-07-15 06:06:00,64.4,55.2,30.21,SE,127,6.7,6.7,72,0.00,,---,0.00,VWS V14.01,2013-07-15 12:06:00,
2013-07-15 06:11:00,65.1,56.3,30.21,SE,127,5.4,5.4,73,0.00,,---,0.00,VWS V14.01,2013-07-15 12:11:00,
2013-07-15 06:17:00,65.5,56.6,30.21,SE,127,7.6,8.1,73,0.00,,---,0.00,VWS V14.01,2013-07-15 12:17:00,
2013-07-15 06:22:00,65.8,57.0,30.21,SE,126,7.6,7.6,73,0.00,,---,0.00,VWS V14.01,2013-07-15 12:22:00,
2013-07-15 06:27:00,66.7,57.8,30.18,ESE,117,7.6,7.6,73,0.00,,---,0.00,VWS V14.01,2013-07-15 12:27:00,
2013-07-15 06:32:00,67.6,59.1,30.18,SE,124,5.8,5.8,74,0.00,,---,0.00,VWS V14.01,2013-07-15 12:32:00,
2013-07-15 06:38:00,68.9,59.9,30.18,SE,129,8.7,8.7,73,0.00,,---,0.00,VWS V14.01,2013-07-15 12:38:00,
2013-07-15 06:43:00,69.4,60.4,30.18,SE,127,7.6,7.6,73,0.00,,---,0.00,VWS V14.01,2013-07-15 12:43:00,
2013-07-15 06:49:00,69.6,60.6,30.18,SE,130,8.1,8.7,73,0.00,,---,0.00,VWS V14.01,2013-07-15 12:49:00,
2013-07-15 06:55:00,69.6,59.8,30.18,SE,136,8.7,8.7,71,0.00,,---,0.00,VWS V14.01,2013-07-15 12:55:00,
2013-07-15 07:00:00,70.0,59.8,30.18,SSE,147,7.6,8.3,70,0.00,,---,0.00,VWS V14.01,2013-07-15 13:00:00,
2013-07-15 07:05:00,70.9,61.0,30.18,SE,144,8.1,8.1,71,0.00,,---,0.00,VWS V14.01,2013-07-15 13:05:00,
2013-07-15 07:11:00,71.6,61.3,30.18,SSE,147,8.1,8.1,70,0.00,,---,0.00,VWS V14.01,2013-07-15 13:11:00,
2013-07-15 07:17:00,72.1,61.8,30.18,SSE,152,7.2,7.2,70,0.00,,---,0.00,VWS V14.01,2013-07-15 13:17:00,
2013-07-15 07:23:00,73.2,63.3,30.21,SSE,150,8.3,9.2,71,0.00,,---,0.00,VWS V14.01,2013-07-15 13:23:00,
2013-07-15 07:28:00,73.9,63.5,30.21,SE,146,9.6,9.6,70,0.00,,---,0.00,VWS V14.01,2013-07-15 13:28:00,
2013-07-15 07:34:00,74.5,64.1,30.21,SSE,154,9.2,10.5,70,0.00,,---,0.00,VWS V14.01,2013-07-15 13:34:00,
2013-07-15 07:40:00,75.7,64.4,30.21,SSE,152,8.3,8.3,68,0.00,,---,0.00,VWS V14.01,2013-07-15 13:40:00,
2013-07-15 07:45:00,75.7,63.6,30.21,SE,142,8.7,8.7,66,0.00,,---,0.00,VWS V14.01,2013-07-15 13:45:00,
2013-07-15 07:51:00,75.9,63.8,30.21,SSE,149,10.1,11.4,66,0.00,,---,0.00,VWS V14.01,2013-07-15 13:51:00,
2013-07-15 07:56:00,76.1,63.9,30.21,SSE,150,8.7,8.7,66,0.00,,---,0.00,VWS V14.01,2013-07-15 13:56:00,
2013-07-15 08:02:00,76.5,63.4,30.21,SSE,152,11.4,11.4,64,0.00,,---,0.00,VWS V14.01,2013-07-15 14:02:00,
2013-07-15 08:07:00,76.8,63.7,30.21,SSE,150,11.0,11.0,64,0.00,,---,0.00,VWS V14.01,2013-07-15 14:07:00,
2013-07-15 08:13:00,76.8,62.4,30.21,SSE,152,11.0,11.0,61,0.00,,---,0.00,VWS V14.01,2013-07-15 14:13:00,
2013-07-15 08:19:00,76.8,61.4,30.21,SSE,154,11.0,12.8,59,0.00,,---,0.00,VWS V14.01,2013-07-15 14:19:00,
2013-07-15 08:24:00,76.8,60.0,30.21,SSE,147,13.6,15.0,56,0.00,,---,0.00,VWS V14.01,2013-07-15 14:24:00,
2013-07-15 08:30:00,76.8,59.5,30.21,SSE,154,15.0,15.0,55,0.00,,---,0.00,VWS V14.01,2013-07-15 14:30:00,
2013-07-15 08:35:00,77.0,58.0,30.21,SE,144,13.2,13.2,52,0.00,,---,0.00,VWS V14.01,2013-07-15 14:35:00,
2013-07-15 08:40:00,77.0,57.0,30.21,SE,144,10.5,13.2,50,0.00,,---,0.00,VWS V14.01,2013-07-15 14:40:00,
2013-07-15 08:45:00,77.0,55.8,30.21,SE,137,14.5,14.5,48,0.00,,---,0.00,VWS V14.01,2013-07-15 14:45:00,
2013-07-15 08:50:00,76.8,55.1,30.21,South,170,15.0,15.0,47,0.00,,---,0.00,VWS V14.01,2013-07-15 14:50:00,
2013-07-15 08:55:00,76.6,53.1,30.21,SSE,159,13.2,13.2,44,0.00,,---,0.00,VWS V14.01,2013-07-15 14:55:00,
2013-07-15 09:00:00,76.6,53.1,30.21,SSE,150,13.6,13.6,44,0.00,,---,0.00,VWS V14.01,2013-07-15 15:00:00,
2013-07-15 09:05:00,76.6,52.5,30.21,SSE,154,15.9,15.9,43,0.00,,---,0.00,VWS V14.01,2013-07-15 15:05:00,
2013-07-15 09:12:00,76.6,51.8,30.21,SSE,155,14.5,15.4,42,0.00,,---,0.00,VWS V14.01,2013-07-15 15:12:00,
2013-07-15 09:18:00,76.8,51.4,30.21,South,187,15.4,15.4,41,0.00,,---,0.00,VWS V14.01,2013-07-15 15:18:00,
2013-07-15 09:23:00,76.5,51.0,30.21,SE,145,20.1,20.1,41,0.00,,---,0.00,VWS V14.01,2013-07-15 15:23:00,
2013-07-15 09:30:00,76.3,50.2,30.21,SSE,154,11.9,17.4,40,0.00,,---,0.00,VWS V14.01,2013-07-15 15:30:00,
2013-07-15 09:36:00,76.5,50.4,30.21,SSE,151,13.6,17.4,40,0.00,,---,0.00,VWS V14.01,2013-07-15 15:36:00,
2013-07-15 09:42:00,76.3,48.8,30.21,South,188,15.0,15.0,38,0.00,,---,0.00,VWS V14.01,2013-07-15 15:42:00,
2013-07-15 09:49:00,76.3,49.5,30.21,SSE,149,17.0,17.9,39,0.00,,---,0.00,VWS V14.01,2013-07-15 15:49:00,
2013-07-15 09:54:00,76.6,49.8,30.21,SSE,161,15.4,22.8,39,0.00,,---,0.00,VWS V14.01,2013-07-15 15:54:00,
2013-07-15 10:01:00,77.0,48.8,30.21,SE,146,20.1,20.1,37,0.00,,---,0.00,VWS V14.01,2013-07-15 16:01:00,
2013-07-15 10:06:00,77.2,48.2,30.21,SSE,147,15.4,15.9,36,0.00,,---,0.00,VWS V14.01,2013-07-15 16:06:00,
2013-07-15 10:12:00,77.2,48.2,30.21,SSE,156,13.2,13.2,36,0.00,,---,0.00,VWS V14.01,2013-07-15 16:12:00,
2013-07-15 10:19:00,76.6,47.7,30.21,SSE,148,18.3,18.3,36,0.00,,---,0.00,VWS V14.01,2013-07-15 16:19:00,
2013-07-15 10:25:00,77.0,48.0,30.21,SSE,158,19.7,19.7,36,0.00,,---,0.00,VWS V14.01,2013-07-15 16:25:00,
2013-07-15 10:30:00,77.9,48.8,30.21,SSE,162,15.9,15.9,36,0.00,,---,0.00,VWS V14.01,2013-07-15 16:30:00,
2013-07-15 10:36:00,78.6,48.7,30.21,SSE,165,11.0,15.4,35,0.00,,---,0.00,VWS V14.01,2013-07-15 16:36:00,
2013-07-15 10:41:00,79.5,49.5,30.21,South,187,12.8,15.0,35,0.00,,---,0.00,VWS V14.01,2013-07-15 16:41:00,
2013-07-15 10:46:00,79.7,48.1,30.21,South,178,10.1,10.1,33,0.00,,---,0.00,VWS V14.01,2013-07-15 16:46:00,
2013-07-15 10:51:00,79.9,48.2,30.21,SSE,156,15.9,15.9,33,0.00,,---,0.00,VWS V14.01,2013-07-15 16:51:00,
2013-07-15 10:56:00,79.9,48.2,30.21,SE,140,17.4,18.8,33,0.00,,---,0.00,VWS V14.01,2013-07-15 16:56:00,
2013-07-15 11:01:00,80.1,46.7,30.21,SSE,147,15.4,15.4,31,0.00,,---,0.00,VWS V14.01,2013-07-15 17:01:00,
2013-07-15 11:07:00,79.7,46.4,30.21,SSE,159,19.2,19.2,31,0.00,,---,0.00,VWS V14.01,2013-07-15 17:07:00,
2013-07-15 11:12:00,79.7,46.4,30.21,SSE,152,15.4,25.7,31,0.00,,---,0.00,VWS V14.01,2013-07-15 17:12:00,
2013-07-15 11:18:00,80.2,46.0,30.21,SE,144,15.0,22.4,30,0.00,,---,0.00,VWS V14.01,2013-07-15 17:18:00,
2013-07-15 11:24:00,80.8,45.6,30.21,SE,129,19.7,19.7,29,0.00,,---,0.00,VWS V14.01,2013-07-15 17:24:00,
2013-07-15 11:29:00,81.0,45.8,30.21,SSE,154,18.3,18.3,29,0.00,,---,0.00,VWS V14.01,2013-07-15 17:29:00,
2013-07-15 11:35:00,81.1,45.9,30.21,SSE,149,17.4,17.4,29,0.00,,---,0.00,VWS V14.01,2013-07-15 17:35:00,
2013-07-15 11:40:00,81.0,45.8,30.21,South,180,13.2,13.2,29,0.00,,---,0.00,VWS V14.01,2013-07-15 17:40:00,
2013-07-15 11:46:00,80.6,45.4,30.21,SSE,163,22.4,22.4,29,0.00,,---,0.00,VWS V14.01,2013-07-15 17:46:00,
2013-07-15 11:53:00,80.6,43.6,30.21,SSE,147,18.3,18.3,27,0.00,,---,0.00,VWS V14.01,2013-07-15 17:53:00,
2013-07-15 11:59:00,80.8,44.7,30.21,SSE,156,18.3,18.3,28,0.00,,---,0.00,VWS V14.01,2013-07-15 17:59:00,
2013-07-15 12:04:00,81.5,44.3,30.21,SE,140,17.9,17.9,27,0.00,,---,0.00,VWS V14.01,2013-07-15 18:04:00,
2013-07-15 12:10:00,81.5,45.3,30.21,SE,143,18.8,23.3,28,0.00,,---,0.00,VWS V14.01,2013-07-15 18:10:00,
2013-07-15 12:15:00,81.5,44.3,30.21,SSE,160,25.5,25.5,27,0.00,,---,0.00,VWS V14.01,2013-07-15 18:15:00,
2013-07-15 12:21:00,81.5,43.3,30.21,SSE,150,20.1,20.1,26,0.00,,---,0.00,VWS V14.01,2013-07-15 18:21:00,
2013-07-15 12:27:00,81.7,44.5,30.21,SSE,159,13.2,16.8,27,0.00,,---,0.00,VWS V14.01,2013-07-15 18:27:00,
2013-07-15 12:32:00,81.3,44.2,30.21,South,182,10.1,17.9,27,0.00,,---,0.00,VWS V14.01,2013-07-15 18:32:00,
2013-07-15 12:37:00,81.3,44.2,30.18,South,181,17.4,17.4,27,0.00,,---,0.00,VWS V14.01,2013-07-15 18:37:00,
2013-07-15 12:42:00,80.8,43.7,30.18,SSE,159,18.8,18.8,27,0.00,,---,0.00,VWS V14.01,2013-07-15 18:42:00,
2013-07-15 12:49:00,80.8,43.7,30.21,SSE,156,17.9,17.9,27,0.00,,---,0.00,VWS V14.01,2013-07-15 18:49:00,
2013-07-15 12:55:00,80.8,43.7,30.21,SE,140,10.1,14.5,27,0.00,,---,0.00,VWS V14.01,2013-07-15 18:55:00,
2013-07-15 13:00:00,81.3,43.2,30.21,SSE,156,17.4,17.4,26,0.00,,---,0.00,VWS V14.01,2013-07-15 19:00:00,
2013-07-15 13:06:00,82.0,44.8,30.21,SSE,147,15.9,15.9,27,0.00,,---,0.00,VWS V14.01,2013-07-15 19:06:00,
2013-07-15 13:11:00,82.2,44.0,30.21,South,176,13.2,13.2,26,0.00,,---,0.00,VWS V14.01,2013-07-15 19:11:00,
2013-07-15 13:17:00,81.9,42.6,30.21,South,169,16.8,16.8,25,0.00,,---,0.00,VWS V14.01,2013-07-15 19:17:00,
2013-07-15 13:23:00,81.9,42.6,30.21,SE,142,17.0,18.3,25,0.00,,---,0.00,VWS V14.01,2013-07-15 19:23:00,
2013-07-15 13:29:00,82.4,42.0,30.21,SSE,152,13.2,17.0,24,0.00,,---,0.00,VWS V14.01,2013-07-15 19:29:00,
2013-07-15 13:35:00,82.8,41.2,30.21,SSE,158,18.3,18.3,23,0.00,,---,0.00,VWS V14.01,2013-07-15 19:35:00,
2013-07-15 13:41:00,82.4,40.9,30.21,SE,139,22.4,22.4,23,0.00,,---,0.00,VWS V14.01,2013-07-15 19:41:00,
2013-07-15 13:47:00,82.2,40.8,30.21,SSE,162,18.8,18.8,23,0.00,,---,0.00,VWS V14.01,2013-07-15 19:47:00,
2013-07-15 13:53:00,81.7,40.3,30.21,South,187,15.0,15.4,23,0.00,,---,0.00,VWS V14.01,2013-07-15 19:53:00,
2013-07-15 13:59:00,81.3,41.1,30.21,SE,137,23.7,23.7,24,0.00,,---,0.00,VWS V14.01,2013-07-15 19:59:00,
2013-07-15 14:04:00,81.3,40.0,30.21,SE,135,19.2,19.7,23,0.00,,---,0.00,VWS V14.01,2013-07-15 20:04:00,
2013-07-15 14:10:00,81.0,38.6,30.18,SE,137,17.4,17.4,22,0.00,,---,0.00,VWS V14.01,2013-07-15 20:10:00,
2013-07-15 14:15:00,81.0,38.6,30.18,SSE,160,17.9,17.9,22,0.00,,---,0.00,VWS V14.01,2013-07-15 20:15:00,
2013-07-15 14:20:00,81.3,38.9,30.18,SSE,152,22.8,22.8,22,0.00,,---,0.00,VWS V14.01,2013-07-15 20:20:00,
2013-07-15 14:26:00,82.8,38.9,30.18,SSE,154,15.0,15.0,21,0.00,,---,0.00,VWS V14.01,2013-07-15 20:26:00,
2013-07-15 14:31:00,82.9,39.0,30.18,SE,140,20.6,23.7,21,0.00,,---,0.00,VWS V14.01,2013-07-15 20:31:00,
2013-07-15 14:37:00,82.8,38.9,30.18,South,179,12.8,16.3,21,0.00,,---,0.00,VWS V14.01,2013-07-15 20:37:00,
2013-07-15 14:42:00,82.6,38.7,30.18,SE,141,15.0,17.4,21,0.00,,---,0.00,VWS V14.01,2013-07-15 20:42:00,
2013-07-15 14:48:00,82.6,38.7,30.18,SSE,149,13.2,13.2,21,0.00,,---,0.00,VWS V14.01,2013-07-15 20:48:00,
2013-07-15 14:53:00,82.8,38.9,30.18,SE,141,17.0,19.2,21,0.00,,---,0.00,VWS V14.01,2013-07-15 20:53:00,
2013-07-15 14:58:00,82.9,39.0,30.18,SE,138,21.9,23.3,21,0.00,,---,0.00,VWS V14.01,2013-07-15 20:58:00,
2013-07-15 15:04:00,82.8,38.9,30.18,SSE,154,21.0,21.0,21,0.00,,---,0.00,VWS V14.01,2013-07-15 21:04:00,
2013-07-15 15:10:00,82.8,38.9,30.18,SSE,151,11.0,17.0,21,0.00,,---,0.00,VWS V14.01,2013-07-15 21:10:00,
2013-07-15 15:16:00,82.9,39.0,30.18,SSE,153,14.5,14.5,21,0.00,,---,0.00,VWS V14.01,2013-07-15 21:16:00,
2013-07-15 15:23:00,83.7,38.4,30.18,South,169,15.0,15.0,20,0.00,,---,0.00,VWS V14.01,2013-07-15 21:23:00,
2013-07-15 15:29:00,83.1,36.6,30.18,SSE,159,13.2,17.4,19,0.00,,---,0.00,VWS V14.01,2013-07-15 21:29:00,
2013-07-15 15:36:00,82.9,37.8,30.18,SSE,152,16.8,16.8,20,0.00,,---,0.00,VWS V14.01,2013-07-15 21:36:00,
2013-07-15 15:41:00,83.7,38.4,30.18,SE,146,15.0,15.0,20,0.00,,---,0.00,VWS V14.01,2013-07-15 21:41:00,
2013-07-15 15:47:00,84.2,37.5,30.18,SE,142,19.7,19.7,19,0.00,,---,0.00,VWS V14.01,2013-07-15 21:47:00,
2013-07-15 15:52:00,84.9,38.1,30.18,SSE,147,15.0,15.4,19,0.00,,---,0.00,VWS V14.01,2013-07-15 21:52:00,
2013-07-15 15:58:00,85.6,38.7,30.18,SSE,151,13.2,13.2,19,0.00,,---,0.00,VWS V14.01,2013-07-15 21:58:00,
2013-07-15 16:03:00,85.5,38.5,30.18,SE,133,17.9,17.9,19,0.00,,---,0.00,VWS V14.01,2013-07-15 22:03:00,
2013-07-15 16:08:00,85.5,38.5,30.15,SE,131,17.9,19.7,19,0.00,,---,0.00,VWS V14.01,2013-07-15 22:08:00,
2013-07-15 16:14:00,83.8,37.2,30.15,SSE,151,13.2,13.2,19,0.00,,---,0.00,VWS V14.01,2013-07-15 22:14:00,
2013-07-15 16:19:00,83.8,37.2,30.15,SSE,148,15.4,15.4,19,0.00,,---,0.00,VWS V14.01,2013-07-15 22:19:00,
2013-07-15 16:25:00,84.0,37.4,30.15,SSE,158,12.8,15.0,19,0.00,,---,0.00,VWS V14.01,2013-07-15 22:25:00,
2013-07-15 16:30:00,84.4,37.7,30.15,SE,142,23.7,23.7,19,0.00,,---,0.00,VWS V14.01,2013-07-15 22:30:00,
2013-07-15 16:36:00,84.4,37.7,30.15,SSE,157,13.2,15.4,19,0.00,,---,0.00,VWS V14.01,2013-07-15 22:36:00,
2013-07-15 16:42:00,84.6,37.8,30.15,SE,144,20.1,23.7,19,0.00,,---,0.00,VWS V14.01,2013-07-15 22:42:00,
2013-07-15 16:47:00,84.6,37.8,30.15,SE,146,17.4,17.4,19,0.00,,---,0.00,VWS V14.01,2013-07-15 22:47:00,
2013-07-15 16:52:00,84.2,37.5,30.15,SSE,152,13.2,13.2,19,0.00,,---,0.00,VWS V14.01,2013-07-15 22:52:00,
2013-07-15 16:57:00,83.8,37.2,30.15,SE,129,22.8,22.8,19,0.00,,---,0.00,VWS V14.01,2013-07-15 22:57:00,
2013-07-15 17:03:00,83.7,37.1,30.15,SSE,150,15.4,18.8,19,0.00,,---,0.00,VWS V14.01,2013-07-15 23:03:00,
2013-07-15 17:08:00,83.7,37.1,30.15,SSE,153,16.3,16.3,19,0.00,,---,0.00,VWS V14.01,2013-07-15 23:08:00,
2013-07-15 17:14:00,83.8,37.2,30.15,SSE,164,14.1,15.9,19,0.00,,---,0.00,VWS V14.01,2013-07-15 23:14:00,
2013-07-15 17:19:00,83.8,37.2,30.15,SSE,163,12.8,12.8,19,0.00,,---,0.00,VWS V14.01,2013-07-15 23:19:00,
2013-07-15 17:25:00,83.7,37.1,30.12,SE,136,17.9,21.0,19,0.00,,---,0.00,VWS V14.01,2013-07-15 23:25:00,
2013-07-15 17:30:00,83.5,36.9,30.12,SSE,154,15.4,15.4,19,0.00,,---,0.00,VWS V14.01,2013-07-15 23:30:00,
2013-07-15 17:36:00,83.5,36.9,30.15,SSE,154,15.4,17.4,19,0.00,,---,0.00,VWS V14.01,2013-07-15 23:36:00,
2013-07-15 17:42:00,83.7,37.1,30.15,SE,146,15.9,21.5,19,0.00,,---,0.00,VWS V14.01,2013-07-15 23:42:00,
2013-07-15 17:48:00,84.7,36.6,30.15,SE,135,17.4,17.4,18,0.00,,---,0.00,VWS V14.01,2013-07-15 23:48:00,
2013-07-15 17:53:00,85.5,34.2,30.15,SE,143,15.4,15.4,16,0.00,,---,0.00,VWS V14.01,2013-07-15 23:53:00,
2013-07-15 17:59:00,86.0,37.6,30.15,SE,145,17.0,17.4,18,0.00,,---,0.00,VWS V14.01,2013-07-15 23:59:00,
2013-07-15 18:04:00,86.2,34.8,30.15,SE,145,16.8,17.4,16,0.00,,---,0.00,VWS V14.01,2013-07-16 00:04:00,
2013-07-15 18:10:00,86.0,34.6,30.15,SSE,151,12.3,13.2,16,0.00,,---,0.00,VWS V14.01,2013-07-16 00:10:00,
2013-07-15 18:15:00,86.5,35.1,30.15,SE,143,17.0,17.0,16,0.00,,---,0.00,VWS V14.01,2013-07-16 00:15:00,
2013-07-15 18:21:00,86.9,35.3,30.12,SSE,167,17.0,17.0,16,0.00,,---,0.00,VWS V14.01,2013-07-16 00:21:00,
2013-07-15 18:27:00,86.9,35.3,30.12,SE,146,13.6,13.6,16,0.00,,---,0.00,VWS V14.01,2013-07-16 00:27:00,
2013-07-15 18:32:00,86.7,35.2,30.12,SE,142,16.3,16.3,16,0.00,,---,0.00,VWS V14.01,2013-07-16 00:32:00,
2013-07-15 18:38:00,86.9,35.3,30.15,SSE,154,16.8,16.8,16,0.00,,---,0.00,VWS V14.01,2013-07-16 00:38:00,
2013-07-15 18:43:00,87.1,35.5,30.15,SSE,154,15.0,15.4,16,0.00,,---,0.00,VWS V14.01,2013-07-16 00:43:00,
2013-07-15 18:49:00,87.1,30.3,30.15,SSE,153,11.0,11.0,13,0.00,,---,0.00,VWS V14.01,2013-07-16 00:49:00,
2013-07-15 18:55:00,86.7,30.0,30.15,SSE,153,13.6,13.6,13,0.00,,---,0.00,VWS V14.01,2013-07-16 00:55:00,
2013-07-15 19:00:00,86.5,35.1,30.15,SE,142,11.0,12.3,16,0.00,,---,0.00,VWS V14.01,2013-07-16 01:00:00,
2013-07-15 19:05:00,86.5,35.1,30.15,SE,146,11.0,12.3,16,0.00,,---,0.00,VWS V14.01,2013-07-16 01:05:00,
2013-07-15 19:10:00,86.7,35.2,30.15,SE,141,10.1,11.0,16,0.00,,---,0.00,VWS V14.01,2013-07-16 01:10:00,
2013-07-15 19:17:00,86.5,35.1,30.15,SSE,152,10.5,10.5,16,0.00,,---,0.00,VWS V14.01,2013-07-16 01:17:00,
2013-07-15 19:22:00,85.8,34.5,30.15,SE,143,8.3,8.3,16,0.00,,---,0.00,VWS V14.01,2013-07-16 01:22:00,
2013-07-15 19:27:00,85.1,33.9,30.15,SSE,151,7.6,7.6,16,0.00,,---,0.00,VWS V14.01,2013-07-16 01:27:00,
2013-07-15 19:32:00,85.1,33.9,30.15,SE,143,8.1,8.1,16,0.00,,---,0.00,VWS V14.01,2013-07-16 01:32:00,
2013-07-15 19:40:00,82.6,36.2,30.15,SE,137,8.7,8.7,19,0.00,,---,0.00,VWS V14.01,2013-07-16 01:40:00,
2013-07-15 19:48:00,79.7,36.3,30.15,SE,140,10.1,10.1,21,0.00,,---,0.00,VWS V14.01,2013-07-16 01:48:00,
2013-07-15 19:53:00,78.1,35.0,30.15,SE,136,10.5,12.3,21,0.00,,---,0.00,VWS V14.01,2013-07-16 01:53:00,
2013-07-15 19:58:00,77.4,34.4,30.15,SE,130,11.0,11.0,21,0.00,,---,0.00,VWS V14.01,2013-07-16 01:58:00,
2013-07-15 20:03:00,76.3,34.7,30.15,SE,134,10.5,11.0,22,0.00,,---,0.00,VWS V14.01,2013-07-16 02:03:00,
2013-07-15 20:09:00,74.7,35.5,30.15,SE,130,10.5,11.0,24,0.00,,---,0.00,VWS V14.01,2013-07-16 02:09:00,
2013-07-15 20:14:00,73.9,34.9,30.15,SE,128,10.5,10.5,24,0.00,,---,0.00,VWS V14.01,2013-07-16 02:14:00,
2013-07-15 20:20:00,73.2,36.3,30.15,SE,125,10.5,10.5,26,0.00,,---,0.00,VWS V14.01,2013-07-16 02:20:00,
2013-07-15 20:26:00,72.5,35.7,30.15,ESE,122,9.6,10.5,26,0.00,,---,0.00,VWS V14.01,2013-07-16 02:26:00,
2013-07-15 20:31:00,71.6,35.9,30.15,SE,124,11.0,11.0,27,0.00,,---,0.00,VWS V14.01,2013-07-16 02:31:00,
2013-07-15 20:37:00,70.9,37.1,30.15,SE,125,9.2,11.0,29,0.00,,---,0.00,VWS V14.01,2013-07-16 02:37:00,
2013-07-15 20:42:00,70.5,37.6,30.15,SE,126,8.7,8.7,30,0.00,,---,0.00,VWS V14.01,2013-07-16 02:42:00,
2013-07-15 20:47:00,70.2,38.1,30.15,SE,124,8.3,8.3,31,0.00,,---,0.00,VWS V14.01,2013-07-16 02:47:00,
2013-07-15 20:55:00,69.8,38.6,30.15,SE,126,12.8,13.2,32,0.00,,---,0.00,VWS V14.01,2013-07-16 02:55:00,
2013-07-15 21:02:00,70.0,38.8,30.15,SE,139,10.5,11.0,32,0.00,,---,0.00,VWS V14.01,2013-07-16 03:02:00,
2013-07-15 21:08:00,70.2,39.0,30.15,SE,130,11.0,12.3,32,0.00,,---,0.00,VWS V14.01,2013-07-16 03:08:00,
2013-07-15 21:13:00,70.0,38.8,30.15,SE,126,10.5,10.5,32,0.00,,---,0.00,VWS V14.01,2013-07-16 03:13:00,
2013-07-15 21:18:00,69.8,38.6,30.15,SE,128,12.8,12.8,32,0.00,,---,0.00,VWS V14.01,2013-07-16 03:18:00,
2013-07-15 21:24:00,69.6,38.5,30.18,SE,129,15.0,15.0,32,0.00,,---,0.00,VWS V14.01,2013-07-16 03:24:00,
2013-07-15 21:30:00,69.8,38.6,30.18,SE,129,15.9,17.4,32,0.00,,---,0.00,VWS V14.01,2013-07-16 03:30:00,
2013-07-15 21:36:00,70.0,38.8,30.18,SE,128,17.9,17.9,32,0.00,,---,0.00,VWS V14.01,2013-07-16 03:36:00,
2013-07-15 21:41:00,70.3,39.1,30.18,SE,138,15.0,15.9,32,0.00,,---,0.00,VWS V14.01,2013-07-16 03:41:00,
2013-07-15 21:48:00,70.7,38.6,30.18,SE,132,17.4,17.4,31,0.00,,---,0.00,VWS V14.01,2013-07-16 03:48:00,
2013-07-15 21:54:00,70.7,39.4,30.18,SE,126,15.4,15.4,32,0.00,,---,0.00,VWS V14.01,2013-07-16 03:54:00,
2013-07-15 21:59:00,70.7,39.4,30.18,SE,128,14.5,17.0,32,0.00,,---,0.00,VWS V14.01,2013-07-16 03:59:00,
2013-07-15 22:01:00,70.9,39.6,30.18,SE,125,16.3,16.8,32,0.00,,---,0.00,VWS V14.01,2013-07-16 04:01:00,
2013-07-15 22:02:00,70.9,39.6,30.18,SE,130,18.3,18.3,32,0.00,,---,0.00,VWS V14.01,2013-07-16 04:02:00,
2013-07-15 22:05:00,71.1,39.7,30.18,SE,132,17.4,17.4,32,0.00,,---,0.00,VWS V14.01,2013-07-16 04:05:00,
2013-07-15 22:06:00,71.1,39.7,30.18,SE,127,15.4,17.4,32,0.00,,---,0.00,VWS V14.01,2013-07-16 04:06:00,
2013-07-15 22:08:00,70.9,39.6,30.18,ESE,122,16.3,16.3,32,0.00,,---,0.00,VWS V14.01,2013-07-16 04:08:00,
2013-07-15 22:13:00,70.7,39.4,30.18,SE,127,13.6,17.4,32,0.00,,---,0.00,VWS V14.01,2013-07-16 04:13:00,
2013-07-15 22:19:00,70.7,39.4,30.18,SE,124,19.7,19.7,32,0.00,,---,0.00,VWS V14.01,2013-07-16 04:19:00,
2013-07-15 22:25:00,70.3,39.1,30.18,SE,129,15.4,15.4,32,0.00,,---,0.00,VWS V14.01,2013-07-16 04:25:00,
2013-07-15 22:30:00,69.8,39.4,30.18,SE,133,18.3,18.8,33,0.00,,---,0.00,VWS V14.01,2013-07-16 04:30:00,
2013-07-15 22:36:00,69.4,39.9,30.18,SSE,156,15.0,18.3,34,0.00,,---,0.00,VWS V14.01,2013-07-16 04:36:00,
2013-07-15 22:41:00,69.4,39.9,30.18,SE,136,18.8,18.8,34,0.00,,---,0.00,VWS V14.01,2013-07-16 04:41:00,
2013-07-15 22:47:00,69.4,39.9,30.18,SE,130,23.3,23.3,34,0.00,,---,0.00,VWS V14.01,2013-07-16 04:47:00,
2013-07-15 22:53:00,69.6,40.0,30.18,SE,136,21.9,21.9,34,0.00,,---,0.00,VWS V14.01,2013-07-16 04:53:00,
2013-07-15 22:58:00,69.6,40.0,30.18,SSE,152,19.2,25.1,34,0.00,,---,0.00,VWS V14.01,2013-07-16 04:58:00,
2013-07-15 23:04:00,69.3,40.5,30.18,SE,138,17.4,19.2,35,0.00,,---,0.00,VWS V14.01,2013-07-16 05:04:00,
2013-07-15 23:09:00,69.1,40.3,30.18,SE,141,15.4,20.1,35,0.00,,---,0.00,VWS V14.01,2013-07-16 05:09:00,
2013-07-15 23:15:00,68.7,40.7,30.18,SE,143,19.2,19.2,36,0.00,,---,0.00,VWS V14.01,2013-07-16 05:15:00,
2013-07-15 23:21:00,68.4,40.4,30.18,SE,144,15.0,17.4,36,0.00,,---,0.00,VWS V14.01,2013-07-16 05:21:00,
2013-07-15 23:26:00,68.2,40.9,30.18,SE,143,15.4,15.4,37,0.00,,---,0.00,VWS V14.01,2013-07-16 05:26:00,
2013-07-15 23:31:00,67.8,42.0,30.18,SE,136,15.4,15.4,39,0.00,,---,0.00,VWS V14.01,2013-07-16 05:31:00,
2013-07-15 23:36:00,67.6,42.5,30.18,SE,138,17.0,17.0,40,0.00,,---,0.00,VWS V14.01,2013-07-16 05:36:00,
2013-07-15 23:41:00,67.5,43.0,30.21,SE,134,15.0,15.4,41,0.00,,---,0.00,VWS V14.01,2013-07-16 05:41:00,
2013-07-15 23:47:00,67.5,43.0,30.21,SE,138,13.2,14.1,41,0.00,,---,0.00,VWS V14.01,2013-07-16 05:47:00,
2013-07-15 23:53:00,67.1,43.3,30.18,SE,139,15.4,15.4,42,0.00,,---,0.00,VWS V14.01,2013-07-16 05:53:00,
2013-07-15 23:58:00,66.9,43.7,30.18,SE,140,16.3,16.3,43,0.00,,---,0.00,VWS V14.01,2013-07-16 05:58:00,